contact:dominique.lefevre@mio.osupytheas.fr, maurice.libes@osupytheas.fr, didier.mallarino@osupytheas.fr
Project:EMSO http://www.emso-fr.org/EMSO-France
Depth: 2436.0 m
Title:EMSO Ligure Ouest : Data MII capteur MICROCAT
DateTime_Computer,Latitude,Longitude,Temperature,Conductivity,Pressure,DateTime_Instrument
DateTime_Computer,Latitude,Longitude,degC,S m-1,dbar,DateTime_Instrument
2023-06-11T00:01:42Z,42.805,6.029,13.3019,4.60077,2470.824,2023-6-11T02:03:56Z
2023-06-11T00:04:45Z,42.805,6.029,13.3019,4.60078,2470.81,2023-6-11T02:06:59Z
2023-06-11T00:07:49Z,42.805,6.029,13.3019,4.60077,2470.833,2023-6-11T02:10:02Z
2023-06-11T00:10:52Z,42.805,6.029,13.3018,4.60078,2470.88,2023-6-11T02:13:05Z
2023-06-11T00:13:55Z,42.805,6.029,13.3016,4.60077,2470.833,2023-6-11T02:16:08Z
2023-06-11T00:16:58Z,42.805,6.029,13.3016,4.60077,2470.833,2023-6-11T02:19:11Z
2023-06-11T00:20:01Z,42.805,6.029,13.3017,4.60077,2470.847,2023-6-11T02:22:15Z
2023-06-11T00:23:04Z,42.805,6.029,13.3018,4.60077,2470.833,2023-6-11T02:25:18Z
2023-06-11T00:26:07Z,42.805,6.029,13.3020,4.60079,2470.824,2023-6-11T02:28:21Z
2023-06-11T00:29:10Z,42.805,6.029,13.3017,4.60079,2470.833,2023-6-11T02:31:24Z
2023-06-11T00:32:13Z,42.805,6.029,13.3018,4.60077,2470.857,2023-6-11T02:34:27Z
2023-06-11T00:35:16Z,42.805,6.029,13.3019,4.60077,2470.847,2023-6-11T02:37:30Z
2023-06-11T00:38:19Z,42.805,6.029,13.3021,4.60079,2470.81,2023-6-11T02:40:33Z
2023-06-11T00:41:22Z,42.805,6.029,13.3023,4.60077,2470.847,2023-6-11T02:43:36Z
2023-06-11T00:44:25Z,42.805,6.029,13.3019,4.60079,2470.847,2023-6-11T02:46:39Z
2023-06-11T00:47:29Z,42.805,6.029,13.3017,4.60076,2470.833,2023-6-11T02:49:42Z
2023-06-11T00:50:32Z,42.805,6.029,13.3023,4.60077,2470.847,2023-6-11T02:52:45Z
2023-06-11T00:53:35Z,42.805,6.029,13.3017,4.60077,2470.857,2023-6-11T02:55:48Z
2023-06-11T00:56:38Z,42.805,6.029,13.3018,4.60078,2470.833,2023-6-11T02:58:52Z
2023-06-11T00:59:41Z,42.805,6.029,13.3019,4.60078,2470.88,2023-6-11T03:01:55Z
2023-06-11T01:02:44Z,42.805,6.029,13.3024,4.60078,2470.871,2023-6-11T03:04:58Z
2023-06-11T01:05:47Z,42.805,6.029,13.3021,4.60076,2470.857,2023-6-11T03:08:01Z
2023-06-11T01:08:50Z,42.805,6.029,13.3019,4.60077,2470.847,2023-6-11T03:11:04Z
2023-06-11T01:11:53Z,42.805,6.029,13.3016,4.60076,2470.847,2023-6-11T03:14:07Z
2023-06-11T01:14:56Z,42.805,6.029,13.3023,4.60079,2470.857,2023-6-11T03:17:10Z
2023-06-11T01:17:59Z,42.805,6.029,13.3021,4.60079,2470.847,2023-6-11T03:20:13Z
2023-06-11T01:21:02Z,42.805,6.029,13.3018,4.60077,2470.871,2023-6-11T03:23:16Z
2023-06-11T01:24:05Z,42.805,6.029,13.3018,4.60077,2470.833,2023-6-11T03:26:19Z
2023-06-11T01:27:09Z,42.805,6.029,13.3020,4.60078,2470.871,2023-6-11T03:29:22Z
2023-06-11T01:30:12Z,42.805,6.029,13.3019,4.60077,2470.833,2023-6-11T03:32:25Z
2023-06-11T01:33:15Z,42.805,6.029,13.3022,4.60078,2470.857,2023-6-11T03:35:29Z
2023-06-11T01:36:18Z,42.805,6.029,13.3019,4.60078,2470.871,2023-6-11T03:38:32Z
2023-06-11T01:39:21Z,42.805,6.029,13.3021,4.60077,2470.871,2023-6-11T03:41:35Z
2023-06-11T01:42:24Z,42.805,6.029,13.3019,4.60081,2470.857,2023-6-11T03:44:38Z
2023-06-11T01:45:27Z,42.805,6.029,13.3019,4.60077,2470.81,2023-6-11T03:47:41Z
2023-06-11T01:48:30Z,42.805,6.029,13.3019,4.60079,2470.81,2023-6-11T03:50:44Z
2023-06-11T01:51:33Z,42.805,6.029,13.3020,4.60078,2470.833,2023-6-11T03:53:47Z
2023-06-11T01:54:36Z,42.805,6.029,13.3021,4.60076,2470.833,2023-6-11T03:56:50Z
2023-06-11T01:57:39Z,42.805,6.029,13.3019,4.60076,2470.833,2023-6-11T03:59:53Z
2023-06-11T02:00:43Z,42.805,6.029,13.3020,4.60077,2470.833,2023-6-11T04:02:56Z
2023-06-11T02:03:46Z,42.805,6.029,13.3019,4.60079,2470.833,2023-6-11T04:05:59Z
2023-06-11T02:06:49Z,42.805,6.029,13.3019,4.60077,2470.824,2023-6-11T04:09:02Z
2023-06-11T02:09:52Z,42.805,6.029,13.3018,4.60081,2470.833,2023-6-11T04:12:06Z
2023-06-11T02:12:55Z,42.805,6.029,13.3015,4.60076,2470.857,2023-6-11T04:15:09Z
2023-06-11T02:15:58Z,42.805,6.029,13.3021,4.60078,2470.81,2023-6-11T04:18:12Z
2023-06-11T02:19:01Z,42.805,6.029,13.3019,4.60078,2470.857,2023-6-11T04:21:15Z
2023-06-11T02:22:04Z,42.805,6.029,13.3020,4.60077,2470.81,2023-6-11T04:24:18Z
2023-06-11T02:25:07Z,42.805,6.029,13.3018,4.60077,2470.833,2023-6-11T04:27:21Z
2023-06-11T02:28:10Z,42.805,6.029,13.3016,4.60077,2470.81,2023-6-11T04:30:24Z
2023-06-11T02:31:13Z,42.805,6.029,13.3017,4.60077,2470.871,2023-6-11T04:33:27Z
2023-06-11T02:34:16Z,42.805,6.029,13.3021,4.60082,2470.833,2023-6-11T04:36:30Z
2023-06-11T02:37:19Z,42.805,6.029,13.3019,4.60077,2470.833,2023-6-11T04:39:33Z
2023-06-11T02:40:23Z,42.805,6.029,13.3019,4.60081,2470.833,2023-6-11T04:42:36Z
2023-06-11T02:43:26Z,42.805,6.029,13.3020,4.60079,2470.833,2023-6-11T04:45:39Z
2023-06-11T02:46:29Z,42.805,6.029,13.3020,4.60079,2470.833,2023-6-11T04:48:42Z
2023-06-11T02:49:32Z,42.805,6.029,13.3021,4.60077,2470.81,2023-6-11T04:51:46Z
2023-06-11T02:52:35Z,42.805,6.029,13.3015,4.60079,2470.847,2023-6-11T04:54:49Z
2023-06-11T02:55:38Z,42.805,6.029,13.3020,4.60079,2470.81,2023-6-11T04:57:52Z
2023-06-11T02:58:41Z,42.805,6.029,13.3021,4.60078,2470.81,2023-6-11T05:00:55Z
2023-06-11T03:01:44Z,42.805,6.029,13.3019,4.60078,2470.824,2023-6-11T05:03:58Z
2023-06-11T03:04:47Z,42.805,6.029,13.3019,4.60079,2470.81,2023-6-11T05:07:01Z
2023-06-11T03:07:50Z,42.805,6.029,13.3019,4.60078,2470.81,2023-6-11T05:10:04Z
2023-06-11T03:10:53Z,42.805,6.029,13.3019,4.60077,2470.824,2023-6-11T05:13:07Z
2023-06-11T03:13:56Z,42.805,6.029,13.3020,4.60081,2470.81,2023-6-11T05:16:10Z
2023-06-11T03:17:00Z,42.805,6.029,13.3020,4.60076,2470.81,2023-6-11T05:19:13Z
2023-06-11T03:20:03Z,42.805,6.029,13.3015,4.60076,2470.81,2023-6-11T05:22:16Z
2023-06-11T03:23:06Z,42.805,6.029,13.3014,4.60077,2470.81,2023-6-11T05:25:19Z
2023-06-11T03:26:09Z,42.805,6.029,13.3022,4.60076,2470.81,2023-6-11T05:28:23Z
2023-06-11T03:29:12Z,42.805,6.029,13.3017,4.60078,2470.81,2023-6-11T05:31:26Z
2023-06-11T03:32:15Z,42.805,6.029,13.3019,4.60079,2470.8,2023-6-11T05:34:29Z
2023-06-11T03:35:18Z,42.805,6.029,13.3021,4.60077,2470.81,2023-6-11T05:37:32Z
2023-06-11T03:38:21Z,42.805,6.029,13.3020,4.60076,2470.81,2023-6-11T05:40:35Z
2023-06-11T03:41:24Z,42.805,6.029,13.3017,4.60076,2470.787,2023-6-11T05:43:38Z
2023-06-11T03:44:27Z,42.805,6.029,13.3021,4.60078,2470.787,2023-6-11T05:46:41Z
2023-06-11T03:47:30Z,42.805,6.029,13.3021,4.60078,2470.787,2023-6-11T05:49:44Z
2023-06-11T03:50:33Z,42.805,6.029,13.3017,4.60078,2470.787,2023-6-11T05:52:47Z
2023-06-11T03:53:36Z,42.805,6.029,13.3018,4.60077,2470.787,2023-6-11T05:55:50Z
2023-06-11T03:56:40Z,42.805,6.029,13.3018,4.60077,2470.81,2023-6-11T05:58:53Z
2023-06-11T03:59:43Z,42.805,6.029,13.3015,4.60077,2470.81,2023-6-11T06:01:56Z
2023-06-11T04:02:46Z,42.805,6.029,13.3015,4.60075,2470.787,2023-6-11T06:05:00Z
2023-06-11T04:05:49Z,42.805,6.029,13.3018,4.60076,2470.8,2023-6-11T06:08:03Z
2023-06-11T04:08:52Z,42.805,6.029,13.3018,4.60076,2470.763,2023-6-11T06:11:06Z
2023-06-11T04:11:55Z,42.805,6.029,13.3017,4.60075,2470.8,2023-6-11T06:14:09Z
2023-06-11T04:14:58Z,42.805,6.029,13.3020,4.60076,2470.787,2023-6-11T06:17:12Z
2023-06-11T04:18:01Z,42.805,6.029,13.3018,4.60077,2470.74,2023-6-11T06:20:15Z
2023-06-11T04:21:04Z,42.805,6.029,13.3018,4.60082,2470.787,2023-6-11T06:23:18Z
2023-06-11T04:24:07Z,42.805,6.029,13.3019,4.60076,2470.787,2023-6-11T06:26:21Z
2023-06-11T04:27:10Z,42.805,6.029,13.3016,4.60075,2470.763,2023-6-11T06:29:24Z
2023-06-11T04:30:13Z,42.805,6.029,13.3015,4.60076,2470.763,2023-6-11T06:32:27Z
2023-06-11T04:33:17Z,42.805,6.029,13.3019,4.60077,2470.74,2023-6-11T06:35:30Z
2023-06-11T04:36:20Z,42.805,6.029,13.3020,4.60076,2470.777,2023-6-11T06:38:33Z
2023-06-11T04:39:23Z,42.805,6.029,13.3017,4.60078,2470.763,2023-6-11T06:41:36Z
2023-06-11T04:42:26Z,42.805,6.029,13.3020,4.60075,2470.787,2023-6-11T06:44:40Z
2023-06-11T04:45:29Z,42.805,6.029,13.3018,4.60075,2470.74,2023-6-11T06:47:43Z
2023-06-11T04:48:32Z,42.805,6.029,13.3021,4.60077,2470.74,2023-6-11T06:50:46Z
2023-06-11T04:51:35Z,42.805,6.029,13.3019,4.60075,2470.754,2023-6-11T06:53:49Z
2023-06-11T04:54:38Z,42.805,6.029,13.3019,4.60077,2470.763,2023-6-11T06:56:52Z
2023-06-11T04:57:41Z,42.805,6.029,13.3021,4.60077,2470.763,2023-6-11T06:59:55Z
2023-06-11T05:00:44Z,42.805,6.029,13.3018,4.60079,2470.74,2023-6-11T07:02:58Z
2023-06-11T05:03:47Z,42.805,6.029,13.3021,4.60077,2470.763,2023-6-11T07:06:01Z
2023-06-11T05:06:50Z,42.805,6.029,13.3020,4.60075,2470.74,2023-6-11T07:09:04Z
2023-06-11T05:09:53Z,42.805,6.029,13.3019,4.60077,2470.74,2023-6-11T07:12:07Z
2023-06-11T05:12:57Z,42.805,6.029,13.3019,4.60079,2470.717,2023-6-11T07:15:10Z
2023-06-11T05:16:00Z,42.805,6.029,13.3020,4.60079,2470.763,2023-6-11T07:18:13Z
2023-06-11T05:19:03Z,42.805,6.029,13.3015,4.60079,2470.717,2023-6-11T07:21:16Z
2023-06-11T05:22:06Z,42.805,6.029,13.3019,4.60078,2470.73,2023-6-11T07:24:20Z
2023-06-11T05:25:09Z,42.805,6.029,13.3015,4.60077,2470.693,2023-6-11T07:27:23Z
2023-06-11T05:28:12Z,42.805,6.029,13.3021,4.60077,2470.73,2023-6-11T07:30:26Z
2023-06-11T05:31:15Z,42.805,6.029,13.3021,4.60077,2470.754,2023-6-11T07:33:29Z
2023-06-11T05:34:18Z,42.805,6.029,13.3019,4.60077,2470.726,2023-6-11T07:36:32Z
2023-06-11T05:37:21Z,42.805,6.029,13.3017,4.60078,2470.73,2023-6-11T07:39:35Z
2023-06-11T05:40:24Z,42.805,6.029,13.3020,4.60077,2470.717,2023-6-11T07:42:38Z
2023-06-11T05:43:27Z,42.805,6.029,13.3019,4.60077,2470.707,2023-6-11T07:45:41Z
2023-06-11T05:46:30Z,42.805,6.029,13.3017,4.60079,2470.717,2023-6-11T07:48:44Z
2023-06-11T05:49:34Z,42.805,6.029,13.3018,4.60076,2470.717,2023-6-11T07:51:47Z
2023-06-11T05:52:37Z,42.805,6.029,13.3018,4.60076,2470.754,2023-6-11T07:54:50Z
2023-06-11T05:55:40Z,42.805,6.029,13.3017,4.60076,2470.717,2023-6-11T07:57:53Z
2023-06-11T05:58:43Z,42.805,6.029,13.3019,4.60079,2470.693,2023-6-11T08:00:57Z
2023-06-11T06:01:46Z,42.805,6.029,13.3021,4.60077,2470.717,2023-6-11T08:04:00Z
2023-06-11T06:04:49Z,42.805,6.029,13.3021,4.60078,2470.693,2023-6-11T08:07:03Z
2023-06-11T06:07:52Z,42.805,6.029,13.3019,4.60077,2470.717,2023-6-11T08:10:06Z
2023-06-11T06:10:55Z,42.805,6.029,13.3016,4.60077,2470.717,2023-6-11T08:13:09Z
2023-06-11T06:13:58Z,42.805,6.029,13.3020,4.60077,2470.693,2023-6-11T08:16:12Z
2023-06-11T06:17:01Z,42.805,6.029,13.3019,4.60079,2470.67,2023-6-11T08:19:15Z
2023-06-11T06:20:04Z,42.805,6.029,13.3021,4.60077,2470.707,2023-6-11T08:22:18Z
2023-06-11T06:23:07Z,42.805,6.029,13.3018,4.60079,2470.693,2023-6-11T08:25:21Z
2023-06-11T06:26:10Z,42.805,6.029,13.3020,4.60076,2470.693,2023-6-11T08:28:24Z
2023-06-11T06:29:14Z,42.805,6.029,13.3020,4.60078,2470.707,2023-6-11T08:31:27Z
2023-06-11T06:32:16Z,42.805,6.029,13.3021,4.60075,2470.707,2023-6-11T08:34:30Z
2023-06-11T06:35:19Z,42.805,6.029,13.3015,4.60081,2470.693,2023-6-11T08:37:33Z
2023-06-11T06:38:22Z,42.805,6.029,13.3017,4.60079,2470.646,2023-6-11T08:40:36Z
2023-06-11T06:41:25Z,42.805,6.029,13.3016,4.60079,2470.693,2023-6-11T08:43:39Z
2023-06-11T06:44:28Z,42.805,6.029,13.3022,4.60079,2470.717,2023-6-11T08:46:42Z
2023-06-11T06:47:31Z,42.805,6.029,13.3020,4.60078,2470.684,2023-6-11T08:49:45Z
2023-06-11T06:50:34Z,42.805,6.029,13.3023,4.60077,2470.679,2023-6-11T08:52:48Z
2023-06-11T06:53:38Z,42.805,6.029,13.3015,4.60077,2470.646,2023-6-11T08:55:51Z
2023-06-11T06:56:41Z,42.805,6.029,13.3019,4.60079,2470.67,2023-6-11T08:58:54Z
2023-06-11T06:59:44Z,42.805,6.029,13.3019,4.60079,2470.67,2023-6-11T09:01:57Z
2023-06-11T07:02:47Z,42.805,6.029,13.3014,4.60079,2470.67,2023-6-11T09:05:01Z
2023-06-11T07:05:50Z,42.805,6.029,13.3018,4.60079,2470.646,2023-6-11T09:08:04Z
2023-06-11T07:08:53Z,42.805,6.029,13.3019,4.60077,2470.646,2023-6-11T09:11:07Z
2023-06-11T07:11:56Z,42.805,6.029,13.3018,4.60079,2470.684,2023-6-11T09:14:10Z
2023-06-11T07:14:59Z,42.805,6.029,13.3024,4.60079,2470.624,2023-6-11T09:17:13Z
2023-06-11T07:18:02Z,42.805,6.029,13.3019,4.60078,2470.67,2023-6-11T09:20:16Z
2023-06-11T07:21:05Z,42.805,6.029,13.3019,4.60079,2470.684,2023-6-11T09:23:19Z
2023-06-11T07:24:08Z,42.805,6.029,13.3019,4.60079,2470.693,2023-6-11T09:26:22Z
2023-06-11T07:27:11Z,42.805,6.029,13.3020,4.60077,2470.661,2023-6-11T09:29:25Z
2023-06-11T07:30:14Z,42.805,6.029,13.3019,4.60079,2470.646,2023-6-11T09:32:28Z
2023-06-11T07:33:18Z,42.805,6.029,13.3016,4.60076,2470.637,2023-6-11T09:35:31Z
2023-06-11T07:36:21Z,42.805,6.029,13.3022,4.60077,2470.693,2023-6-11T09:38:34Z
2023-06-11T07:39:24Z,42.805,6.029,13.3021,4.60079,2470.684,2023-6-11T09:41:37Z
2023-06-11T07:42:27Z,42.805,6.029,13.3020,4.60077,2470.646,2023-6-11T09:44:41Z
2023-06-11T07:45:30Z,42.805,6.029,13.3019,4.60076,2470.646,2023-6-11T09:47:44Z
2023-06-11T07:48:33Z,42.805,6.029,13.3019,4.60080,2470.684,2023-6-11T09:50:47Z
2023-06-11T07:51:36Z,42.805,6.029,13.3017,4.60080,2470.646,2023-6-11T09:53:50Z
2023-06-11T07:54:39Z,42.805,6.029,13.3023,4.60078,2470.661,2023-6-11T09:56:53Z
2023-06-11T07:57:42Z,42.805,6.029,13.3023,4.60079,2470.614,2023-6-11T09:59:56Z
2023-06-11T08:00:45Z,42.805,6.029,13.3016,4.60079,2470.684,2023-6-11T10:02:59Z
2023-06-11T08:03:48Z,42.805,6.029,13.3019,4.60078,2470.67,2023-6-11T10:06:02Z
2023-06-11T08:06:51Z,42.805,6.029,13.3015,4.60076,2470.693,2023-6-11T10:09:05Z
2023-06-11T08:09:55Z,42.805,6.029,13.3022,4.60079,2470.661,2023-6-11T10:12:08Z
2023-06-11T08:12:58Z,42.805,6.029,13.3019,4.60079,2470.646,2023-6-11T10:15:11Z
2023-06-11T08:16:01Z,42.805,6.029,13.3021,4.60078,2470.6,2023-6-11T10:18:14Z
2023-06-11T08:19:04Z,42.805,6.029,13.3018,4.60079,2470.656,2023-6-11T10:21:18Z
2023-06-11T08:22:07Z,42.805,6.029,13.3019,4.60078,2470.637,2023-6-11T10:24:21Z
2023-06-11T08:25:10Z,42.805,6.029,13.3018,4.60078,2470.624,2023-6-11T10:27:24Z
2023-06-11T08:28:13Z,42.805,6.029,13.3021,4.60077,2470.646,2023-6-11T10:30:27Z
2023-06-11T08:31:15Z,42.805,6.029,13.3019,4.60077,2470.684,2023-6-11T10:33:28Z
2023-06-11T08:34:18Z,42.805,6.029,13.3024,4.60076,2470.67,2023-6-11T10:36:31Z
2023-06-11T08:37:21Z,42.805,6.029,13.3019,4.60079,2470.624,2023-6-11T10:39:35Z
2023-06-11T08:40:24Z,42.805,6.029,13.3013,4.60078,2470.624,2023-6-11T10:42:38Z
2023-06-11T08:43:27Z,42.805,6.029,13.3021,4.60079,2470.624,2023-6-11T10:45:41Z
2023-06-11T08:46:30Z,42.805,6.029,13.3021,4.60080,2470.646,2023-6-11T10:48:44Z
2023-06-11T08:49:33Z,42.805,6.029,13.3020,4.60079,2470.646,2023-6-11T10:51:47Z
2023-06-11T08:52:36Z,42.805,6.029,13.3021,4.60077,2470.67,2023-6-11T10:54:50Z
2023-06-11T08:55:39Z,42.805,6.029,13.3022,4.60079,2470.646,2023-6-11T10:57:53Z
2023-06-11T08:58:42Z,42.805,6.029,13.3018,4.60079,2470.6,2023-6-11T11:00:56Z
2023-06-11T09:01:45Z,42.805,6.029,13.3019,4.60077,2470.661,2023-6-11T11:03:59Z
2023-06-11T09:04:48Z,42.805,6.029,13.3020,4.60076,2470.684,2023-6-11T11:07:02Z
2023-06-11T09:07:52Z,42.805,6.029,13.3024,4.60078,2470.646,2023-6-11T11:10:05Z
2023-06-11T09:10:55Z,42.805,6.029,13.3016,4.60078,2470.661,2023-6-11T11:13:08Z
2023-06-11T09:13:58Z,42.805,6.029,13.3020,4.60079,2470.67,2023-6-11T11:16:11Z
2023-06-11T09:17:01Z,42.805,6.029,13.3019,4.60077,2470.646,2023-6-11T11:19:15Z
2023-06-11T09:20:04Z,42.805,6.029,13.3019,4.60078,2470.67,2023-6-11T11:22:18Z
2023-06-11T09:23:07Z,42.805,6.029,13.3021,4.60079,2470.646,2023-6-11T11:25:21Z
2023-06-11T09:26:10Z,42.805,6.029,13.3022,4.60079,2470.67,2023-6-11T11:28:24Z
2023-06-11T09:29:13Z,42.805,6.029,13.3018,4.60078,2470.624,2023-6-11T11:31:27Z
2023-06-11T09:32:16Z,42.805,6.029,13.3021,4.60079,2470.661,2023-6-11T11:34:30Z
2023-06-11T09:35:19Z,42.805,6.029,13.3015,4.60084,2470.693,2023-6-11T11:37:33Z
2023-06-11T09:38:22Z,42.805,6.029,13.3020,4.60079,2470.646,2023-6-11T11:40:36Z
2023-06-11T09:41:26Z,42.805,6.029,13.3016,4.60077,2470.693,2023-6-11T11:43:39Z
2023-06-11T09:44:29Z,42.805,6.029,13.3019,4.60077,2470.693,2023-6-11T11:46:42Z
2023-06-11T09:47:32Z,42.805,6.029,13.3021,4.60076,2470.684,2023-6-11T11:49:45Z
2023-06-11T09:50:35Z,42.805,6.029,13.3019,4.60080,2470.684,2023-6-11T11:52:49Z
2023-06-11T09:53:38Z,42.805,6.029,13.3019,4.60077,2470.646,2023-6-11T11:55:52Z
2023-06-11T09:56:41Z,42.805,6.029,13.3019,4.60078,2470.67,2023-6-11T11:58:55Z
2023-06-11T09:59:44Z,42.805,6.029,13.3021,4.60077,2470.693,2023-6-11T12:01:58Z
2023-06-11T10:02:47Z,42.805,6.029,13.3018,4.60077,2470.67,2023-6-11T12:05:01Z
2023-06-11T10:05:50Z,42.805,6.029,13.3019,4.60079,2470.67,2023-6-11T12:08:04Z
2023-06-11T10:08:53Z,42.805,6.029,13.3021,4.60077,2470.707,2023-6-11T12:11:07Z
2023-06-11T10:11:56Z,42.805,6.029,13.3020,4.60079,2470.656,2023-6-11T12:14:10Z
2023-06-11T10:14:59Z,42.805,6.029,13.3021,4.60078,2470.637,2023-6-11T12:17:13Z
2023-06-11T10:18:03Z,42.805,6.029,13.3018,4.60078,2470.67,2023-6-11T12:20:16Z
2023-06-11T10:21:06Z,42.805,6.029,13.3023,4.60079,2470.684,2023-6-11T12:23:19Z
2023-06-11T10:24:09Z,42.805,6.029,13.3019,4.60077,2470.661,2023-6-11T12:26:22Z
2023-06-11T10:27:12Z,42.805,6.029,13.3019,4.60079,2470.67,2023-6-11T12:29:26Z
2023-06-11T10:30:13Z,42.805,6.029,13.3021,4.60079,2470.637,2023-6-11T12:32:27Z
2023-06-11T10:33:16Z,42.805,6.029,13.3017,4.60075,2470.67,2023-6-11T12:35:30Z
2023-06-11T10:36:19Z,42.805,6.029,13.3019,4.60080,2470.693,2023-6-11T12:38:33Z
2023-06-11T10:39:22Z,42.805,6.029,13.3019,4.60079,2470.684,2023-6-11T12:41:36Z
2023-06-11T10:42:26Z,42.805,6.029,13.3016,4.60080,2470.693,2023-6-11T12:44:39Z
2023-06-11T10:45:29Z,42.805,6.029,13.3020,4.60079,2470.693,2023-6-11T12:47:42Z
2023-06-11T10:48:32Z,42.805,6.029,13.3017,4.60083,2470.661,2023-6-11T12:50:46Z
2023-06-11T10:51:35Z,42.805,6.029,13.3020,4.60081,2470.693,2023-6-11T12:53:49Z
2023-06-11T10:54:38Z,42.805,6.029,13.3021,4.60081,2470.67,2023-6-11T12:56:52Z
2023-06-11T10:57:41Z,42.805,6.029,13.3017,4.60081,2470.693,2023-6-11T12:59:55Z
2023-06-11T11:00:44Z,42.805,6.029,13.3021,4.60081,2470.684,2023-6-11T13:02:58Z
2023-06-11T11:03:47Z,42.805,6.029,13.3021,4.60081,2470.67,2023-6-11T13:06:01Z
2023-06-11T11:06:50Z,42.805,6.029,13.3018,4.60081,2470.646,2023-6-11T13:09:04Z
2023-06-11T11:09:53Z,42.805,6.029,13.3021,4.60080,2470.717,2023-6-11T13:12:07Z
2023-06-11T11:12:56Z,42.805,6.029,13.3024,4.60081,2470.693,2023-6-11T13:15:10Z
2023-06-11T11:16:00Z,42.805,6.029,13.3023,4.60085,2470.707,2023-6-11T13:18:13Z
2023-06-11T11:19:03Z,42.805,6.029,13.3017,4.60080,2470.73,2023-6-11T13:21:16Z
2023-06-11T11:22:06Z,42.805,6.029,13.3022,4.60081,2470.717,2023-6-11T13:24:19Z
2023-06-11T11:25:09Z,42.805,6.029,13.3019,4.60079,2470.67,2023-6-11T13:27:23Z
2023-06-11T11:28:12Z,42.805,6.029,13.3019,4.60083,2470.693,2023-6-11T13:30:26Z
2023-06-11T11:31:15Z,42.805,6.029,13.3020,4.60079,2470.717,2023-6-11T13:33:29Z
2023-06-11T11:34:18Z,42.805,6.029,13.3022,4.60080,2470.717,2023-6-11T13:36:32Z
2023-06-11T11:37:21Z,42.805,6.029,13.3021,4.60084,2470.74,2023-6-11T13:39:35Z
2023-06-11T11:40:24Z,42.805,6.029,13.3021,4.60081,2470.707,2023-6-11T13:42:38Z
2023-06-11T11:43:27Z,42.805,6.029,13.3022,4.60082,2470.67,2023-6-11T13:45:41Z
2023-06-11T11:46:30Z,42.805,6.029,13.3017,4.60080,2470.693,2023-6-11T13:48:44Z
2023-06-11T11:49:33Z,42.805,6.029,13.3020,4.60081,2470.693,2023-6-11T13:51:47Z
2023-06-11T11:52:37Z,42.805,6.029,13.3019,4.60079,2470.693,2023-6-11T13:54:50Z
2023-06-11T11:55:40Z,42.805,6.029,13.3019,4.60080,2470.73,2023-6-11T13:57:53Z
2023-06-11T11:58:43Z,42.805,6.029,13.3021,4.60080,2470.717,2023-6-11T14:00:56Z
2023-06-11T12:01:46Z,42.805,6.029,13.3017,4.60079,2470.703,2023-6-11T14:04:00Z
2023-06-11T12:04:49Z,42.805,6.029,13.3020,4.60081,2470.693,2023-6-11T14:07:03Z
2023-06-11T12:07:52Z,42.805,6.029,13.3019,4.60084,2470.73,2023-6-11T14:10:06Z
2023-06-11T12:10:55Z,42.805,6.029,13.3025,4.60084,2470.74,2023-6-11T14:13:09Z
2023-06-11T12:13:58Z,42.805,6.029,13.3024,4.60081,2470.73,2023-6-11T14:16:12Z
2023-06-11T12:17:01Z,42.805,6.029,13.3023,4.60079,2470.67,2023-6-11T14:19:15Z
2023-06-11T12:20:04Z,42.805,6.029,13.3019,4.60079,2470.73,2023-6-11T14:22:18Z
2023-06-11T12:23:07Z,42.805,6.029,13.3019,4.60079,2470.717,2023-6-11T14:25:21Z
2023-06-11T12:26:10Z,42.805,6.029,13.3019,4.60079,2470.693,2023-6-11T14:28:24Z
2023-06-11T12:29:14Z,42.805,6.029,13.3020,4.60081,2470.717,2023-6-11T14:31:27Z
2023-06-11T12:32:17Z,42.805,6.029,13.3023,4.60079,2470.67,2023-6-11T14:34:30Z
2023-06-11T12:35:20Z,42.805,6.029,13.3019,4.60082,2470.693,2023-6-11T14:37:34Z
2023-06-11T12:38:23Z,42.805,6.029,13.3023,4.60081,2470.73,2023-6-11T14:40:37Z
2023-06-11T12:41:26Z,42.805,6.029,13.3021,4.60079,2470.73,2023-6-11T14:43:40Z
2023-06-11T12:44:29Z,42.805,6.029,13.3021,4.60085,2470.703,2023-6-11T14:46:43Z
2023-06-11T12:47:32Z,42.805,6.029,13.3021,4.60081,2470.73,2023-6-11T14:49:46Z
2023-06-11T12:50:35Z,42.805,6.029,13.3024,4.60081,2470.74,2023-6-11T14:52:49Z
2023-06-11T12:53:38Z,42.805,6.029,13.3025,4.60079,2470.717,2023-6-11T14:55:52Z
2023-06-11T12:56:41Z,42.805,6.029,13.3021,4.60084,2470.717,2023-6-11T14:58:55Z
2023-06-11T12:59:44Z,42.805,6.029,13.3020,4.60081,2470.717,2023-6-11T15:01:58Z
2023-06-11T13:02:48Z,42.805,6.029,13.3022,4.60082,2470.717,2023-6-11T15:05:01Z
2023-06-11T13:05:51Z,42.805,6.029,13.3021,4.60084,2470.693,2023-6-11T15:08:04Z
2023-06-11T13:08:54Z,42.805,6.029,13.3024,4.60080,2470.703,2023-6-11T15:11:08Z
2023-06-11T13:11:57Z,42.805,6.029,13.3024,4.60082,2470.73,2023-6-11T15:14:11Z
2023-06-11T13:15:00Z,42.805,6.029,13.3026,4.60080,2470.74,2023-6-11T15:17:14Z
2023-06-11T13:18:03Z,42.805,6.029,13.3024,4.60081,2470.74,2023-6-11T15:20:17Z
2023-06-11T13:21:06Z,42.805,6.029,13.3020,4.60081,2470.754,2023-6-11T15:23:20Z
2023-06-11T13:24:09Z,42.805,6.029,13.3029,4.60081,2470.763,2023-6-11T15:26:23Z
2023-06-11T13:27:12Z,42.805,6.029,13.3024,4.60081,2470.717,2023-6-11T15:29:26Z
2023-06-11T13:30:15Z,42.805,6.029,13.3023,4.60080,2470.717,2023-6-11T15:32:29Z
2023-06-11T13:33:18Z,42.805,6.029,13.3027,4.60080,2470.74,2023-6-11T15:35:32Z
2023-06-11T13:36:21Z,42.805,6.029,13.3021,4.60082,2470.717,2023-6-11T15:38:35Z
2023-06-11T13:39:25Z,42.805,6.029,13.3021,4.60083,2470.693,2023-6-11T15:41:38Z
2023-06-11T13:42:28Z,42.805,6.029,13.3020,4.60082,2470.74,2023-6-11T15:44:41Z
2023-06-11T13:45:31Z,42.805,6.029,13.3024,4.60081,2470.693,2023-6-11T15:47:45Z
2023-06-11T13:48:34Z,42.805,6.029,13.3022,4.60081,2470.717,2023-6-11T15:50:48Z
2023-06-11T13:51:37Z,42.805,6.029,13.3024,4.60080,2470.73,2023-6-11T15:53:51Z
2023-06-11T13:54:40Z,42.805,6.029,13.3025,4.60079,2470.717,2023-6-11T15:56:54Z
2023-06-11T13:57:43Z,42.805,6.029,13.3020,4.60080,2470.693,2023-6-11T15:59:57Z
2023-06-11T14:00:46Z,42.805,6.029,13.3018,4.60080,2470.717,2023-6-11T16:03:00Z
2023-06-11T14:03:49Z,42.805,6.029,13.3024,4.60080,2470.693,2023-6-11T16:06:03Z
2023-06-11T14:06:52Z,42.805,6.029,13.3019,4.60080,2470.717,2023-6-11T16:09:06Z
2023-06-11T14:09:55Z,42.805,6.029,13.3023,4.60080,2470.73,2023-6-11T16:12:09Z
2023-06-11T14:12:59Z,42.805,6.029,13.3024,4.60081,2470.73,2023-6-11T16:15:12Z
2023-06-11T14:16:02Z,42.805,6.029,13.3021,4.60084,2470.717,2023-6-11T16:18:15Z
2023-06-11T14:19:05Z,42.805,6.029,13.3021,4.60079,2470.717,2023-6-11T16:21:19Z
2023-06-11T14:22:08Z,42.805,6.029,13.3026,4.60079,2470.693,2023-6-11T16:24:22Z
2023-06-11T14:25:11Z,42.805,6.029,13.3025,4.60084,2470.707,2023-6-11T16:27:25Z
2023-06-11T14:28:14Z,42.805,6.029,13.3022,4.60080,2470.693,2023-6-11T16:30:28Z
2023-06-11T14:31:16Z,42.805,6.029,13.3022,4.60081,2470.717,2023-6-11T16:33:30Z
2023-06-11T14:34:19Z,42.805,6.029,13.3020,4.60079,2470.707,2023-6-11T16:36:33Z
2023-06-11T14:37:22Z,42.805,6.029,13.3024,4.60082,2470.717,2023-6-11T16:39:36Z
2023-06-11T14:40:25Z,42.805,6.029,13.3024,4.60081,2470.717,2023-6-11T16:42:39Z
2023-06-11T14:43:28Z,42.805,6.029,13.3022,4.60082,2470.717,2023-6-11T16:45:42Z
2023-06-11T14:46:31Z,42.805,6.029,13.3022,4.60081,2470.693,2023-6-11T16:48:45Z
2023-06-11T14:49:34Z,42.805,6.029,13.3024,4.60082,2470.717,2023-6-11T16:51:48Z
2023-06-11T14:52:37Z,42.805,6.029,13.3025,4.60081,2470.717,2023-6-11T16:54:51Z
2023-06-11T14:55:41Z,42.805,6.029,13.3023,4.60081,2470.693,2023-6-11T16:57:54Z
2023-06-11T14:58:44Z,42.805,6.029,13.3024,4.60084,2470.73,2023-6-11T17:00:57Z
2023-06-11T15:01:47Z,42.805,6.029,13.3024,4.60085,2470.717,2023-6-11T17:04:01Z
2023-06-11T15:04:50Z,42.805,6.029,13.3023,4.60084,2470.707,2023-6-11T17:07:04Z
2023-06-11T15:07:53Z,42.805,6.029,13.3024,4.60083,2470.73,2023-6-11T17:10:07Z
2023-06-11T15:10:56Z,42.805,6.029,13.3021,4.60080,2470.67,2023-6-11T17:13:10Z
2023-06-11T15:13:59Z,42.805,6.029,13.3021,4.60081,2470.717,2023-6-11T17:16:13Z